QPF
0.00 0.00 0.00 0.00 0.00 0.00 0.00 0.00 0.00 0.00 0.00 0.00 0.00 0.00 0.00 0.00 0.00 0.00 0.00 0.00 0.00 0.00 0.00 0.00 0.00 0.00 0.00 0.00 0.01 0.09 0.20 0.03 0.00 0.11 0.02 0.00 0.00 0.00 0.00 0.00 0.00 0.00 0.00 0.00 0.00
0.01 0.00 0.00 0.00 0.00 0.00 0.00 0.00 0.00 0.00 0.00 0.00 0.00 0.00 0.00 0.00 0.00 0.00 0.00 0.00 0.00 0.00 0.00 0.00 0.00 0.00 0.00 0.01 0.00 0.15 0.34 0.06 0.00 0.05 0.00 0.00 0.00 0.00 0.00 0.00 0.00 0.00 0.00 0.00 0.00
0.01 0.00 0.01 0.00 0.00 0.00 0.00 0.00 0.00 0.00 0.00 0.00 0.00 0.00 0.00 0.00 0.00 0.00 0.00 0.00 0.00 0.00 0.00 0.00 0.00 0.00 0.00 0.00 0.00 0.04 0.14 0.05 0.02 0.02 0.01 0.00 0.00 0.00 0.00 0.00 0.00 0.00 0.00 0.00 0.00
0.00 0.00 0.00 0.00 0.01 0.00 0.00 0.00 0.00 0.00 0.00 0.00 0.00 0.00 0.00 0.00 0.00 0.00 0.00 0.00 0.00 0.00 0.00 0.00 0.00 0.00 0.00 0.00 0.01 0.10 0.14 0.03 0.04 0.01 0.02 0.05 0.00 0.00 0.00 0.00 0.00 0.00 0.00 0.00 0.00
0.00 0.00 0.00 0.00 0.00 0.00 0.00 0.00 0.00 0.00 0.00 0.00 0.00 0.00 0.00 0.00 0.00 0.00 0.00 0.00 0.00 0.00 0.00 0.00 0.00 0.00 0.00 0.02 0.03 0.12 0.22 0.07 0.11 0.10 0.09 0.01 0.00 0.00 0.00 0.00 0.00 0.00 0.00 0.00 0.00
0.00 0.00 0.00 0.00 0.00 0.00 0.00 0.00 0.00 0.00 0.00 0.00 0.00 0.00 0.00 0.00 0.00 0.00 0.00 0.00 0.00 0.00 0.00 0.00 0.00 0.00 0.00 0.13 0.46 0.08 0.09 0.05 0.09 0.32 0.10 0.01 0.00 0.00 0.00 0.00 0.00 0.00 0.00 0.00 0.00
0.00 0.00 0.00 0.00 0.00 0.00 0.00 0.00 0.00 0.00 0.00 0.00 0.00 0.00 0.00 0.00 0.00 0.00 0.00 0.00 0.00 0.00 0.00 0.00 0.00 0.00 0.00 0.01 0.02 0.02 0.01 0.01 0.02 0.07 0.04 0.01 0.02 0.00 0.00 0.00 0.00 0.00 0.00 0.00 0.00
0.00 0.00 0.00 0.00 0.00 0.00 0.00 0.00 0.00 0.00 0.00 0.00 0.00 0.00 0.00 0.00 0.00 0.00 0.00 0.00 0.00 0.00 0.00 0.00 0.00 0.00 0.00 0.00 0.00 0.00 0.00 0.00 0.00 0.00 0.00 0.05 0.23 0.01 0.00 0.00 0.00 0.00 0.00 0.00 0.00
0.00 0.00 0.00 0.00 0.00 0.00 0.00 0.00 0.00 0.00 0.00 0.00 0.00 0.00 0.00 0.00 0.00 0.00 0.00 0.00 0.00 0.00 0.00 0.00 0.00 0.00 0.00 0.00 0.00 0.00 0.00 0.00 0.00 0.00 0.01 0.04 0.02 0.00 0.01 0.00 0.00 0.00 0.00 0.00 0.03
0.00 0.00 0.00 0.00 0.00 0.00 0.00 0.00 0.00 0.00 0.00 0.00 0.00 0.00 0.00 0.00 0.00 0.00 0.00 0.00 0.00 0.00 0.00 0.00 0.00 0.00 0.00 0.00 0.00 0.00 0.00 0.00 0.02 0.00 0.05 0.07 0.01 0.00 0.00 0.03 0.01 0.00 0.00 0.00 0.02
0.00 0.00 0.00 0.00 0.00 0.00 0.00 0.00 0.00 0.00 0.00 0.00 0.00 0.00 0.00 0.00 0.00 0.00 0.00 0.00 0.00 0.00 0.00 0.00 0.00 0.00 0.00 0.00 0.00 0.00 0.01 0.02 0.02 0.00 0.03 0.03 0.00 0.00 0.00 0.01 0.01 0.00 0.00 0.00 0.00
0.00 0.00 0.00 0.00 0.00 0.00 0.00 0.00 0.00 0.00 0.00 0.00 0.00 0.00 0.00 0.00 0.00 0.00 0.00 0.00 0.00 0.00 0.00 0.00 0.00 0.00 0.00 0.00 0.00 0.00 0.00 0.01 0.02 0.03 0.05 0.03 0.01 0.00 0.00 0.00 0.00 0.00 0.00 0.00 0.00
0.00 0.00 0.00 0.00 0.00 0.00 0.00 0.00 0.00 0.00 0.00 0.00 0.00 0.00 0.00 0.00 0.00 0.00 0.00 0.00 0.00 0.00 0.00 0.00 0.00 0.00 0.00 0.00 0.00 0.00 0.00 0.01 0.00 0.04 0.03 0.00 0.00 0.01 0.02 0.02 0.01 0.00 0.00 0.00 0.01
0.00 0.00 0.00 0.00 0.00 0.00 0.00 0.00 0.00 0.00 0.00 0.00 0.00 0.00 0.00 0.00 0.00 0.00 0.00 0.00 0.00 0.00 0.00 0.00 0.00 0.00 0.00 0.00 0.00 0.00 0.00 0.00 0.00 0.01 0.00 0.00 0.00 0.00 0.01 0.03 0.03 0.00 0.00 0.00 0.00
0.00 0.00 0.00 0.00 0.00 0.00 0.00 0.00 0.00 0.00 0.00 0.00 0.00 0.00 0.00 0.00 0.00 0.00 0.00 0.00 0.00 0.00 0.00 0.00 0.00 0.00 0.00 0.00 0.00 0.00 0.00 0.00 0.01 0.06 0.00 0.00 0.00 0.00 0.00 0.00 0.00 0.00 0.00 0.00 0.00
0.00 0.00 0.00 0.00 0.00 0.00 0.00 0.00 0.00 0.00 0.00 0.00 0.00 0.00 0.00 0.00 0.00 0.00 0.00 0.00 0.00 0.00 0.00 0.00 0.00 0.00 0.00 0.00 0.00 0.00 0.00 0.00 0.05 0.07 0.01 0.00 0.00 0.00 0.00 0.00 0.00 0.00 0.00 0.00 0.00
0.00 0.00 0.00 0.00 0.00 0.00 0.00 0.00 0.00 0.00 0.00 0.00 0.00 0.00 0.00 0.00 0.00 0.00 0.00 0.00 0.00 0.00 0.00 0.00 0.00 0.00 0.00 0.00 0.00 0.00 0.00 0.00 0.02 0.03 0.04 0.00 0.00 0.00 0.00 0.00 0.00 0.00 0.00 0.00 0.00
0.00 0.00 0.00 0.00 0.00 0.00 0.00 0.00 0.00 0.00 0.00 0.00 0.00 0.00 0.00 0.00 0.00 0.00 0.00 0.00 0.00 0.00 0.00 0.00 0.00 0.00 0.00 0.00 0.00 0.00 0.00 0.00 0.00 0.01 0.02 0.00 0.00 0.00 0.00 0.00 0.00 0.00 0.00 0.00 0.00
0.00 0.00 0.00 0.00 0.00 0.00 0.00 0.00 0.00 0.00 0.00 0.00 0.00 0.00 0.00 0.00 0.00 0.00 0.00 0.00 0.00 0.00 0.00 0.00 0.00 0.00 0.00 0.00 0.00 0.00 0.00 0.00 0.00 0.00 0.00 0.01 0.00 0.00 0.00 0.00 0.00 0.00 0.00 0.00 0.00
0.00 0.00 0.00 0.00 0.00 0.00 0.00 0.00 0.00 0.00 0.00 0.00 0.00 0.00 0.00 0.00 0.00 0.00 0.00 0.00 0.00 0.00 0.00 0.00 0.00 0.00 0.00 0.00 0.00 0.00 0.00 0.00 0.00 0.00 0.01 0.01 0.01 0.00 0.00 0.00 0.00 0.00 0.00 0.00 0.00
0.00 0.00 0.00 0.00 0.00 0.00 0.00 0.00 0.00 0.00 0.00 0.00 0.00 0.00 0.00 0.00 0.00 0.00 0.00 0.00 0.00 0.00 0.00 0.00 0.00 0.00 0.00 0.00 0.00 0.00 0.00 0.00 0.00 0.00 0.00 0.01 0.00 0.00 0.00 0.00 0.00 0.00 0.00 0.00 0.00
0.00 0.00 0.00 0.00 0.00 0.00 0.00 0.00 0.00 0.00 0.00 0.00 0.00 0.00 0.00 0.00 0.00 0.00 0.00 0.00 0.00 0.00 0.00 0.00 0.00 0.00 0.00 0.00 0.00 0.00 0.00 0.00 0.00 0.01 0.00 0.00 0.00 0.01 0.02 0.01 0.00 0.00 0.00 0.00 0.00
0.00 0.00 0.00 0.00 0.00 0.00 0.00 0.00 0.00 0.00 0.00 0.00 0.00 0.00 0.00 0.00 0.00 0.00 0.00 0.00 0.00 0.00 0.00 0.00 0.00 0.00 0.00 0.00 0.00 0.00 0.00 0.00 0.00 0.00 0.00 0.00 0.00 0.00 0.00 0.00 0.00 0.00 0.00 0.00 0.00
0.00 0.00 0.00 0.00 0.00 0.00 0.00 0.00 0.00 0.00 0.00 0.00 0.00 0.00 0.00 0.00 0.00 0.00 0.00 0.00 0.00 0.00 0.00 0.00 0.00 0.00 0.00 0.00 0.00 0.00 0.00 0.00 0.00 0.00 0.00 0.00 0.00 0.00 0.00 0.00 0.00 0.00 0.00 0.00 0.00
0.00 0.00 0.00 0.00 0.00 0.00 0.00 0.00 0.00 0.00 0.00 0.00 0.00 0.00 0.00 0.00 0.00 0.00 0.00 0.00 0.00 0.00 0.00 0.00 0.00 0.00 0.00 0.00 0.00 0.00 0.00 0.00 0.00 0.00 0.00 0.00 0.00 0.00 0.00 0.00 0.00 0.00 0.00 0.00 0.00
0.00 0.00 0.00 0.00 0.00 0.00 0.00 0.00 0.00 0.00 0.00 0.00 0.00 0.00 0.00 0.00 0.00 0.00 0.00 0.00 0.00 0.00 0.00 0.00 0.00 0.00 0.00 0.00 0.00 0.00 0.00 0.00 0.00 0.00 0.00 0.00 0.00 0.00 0.00 0.00 0.00 0.00 0.00 0.00 0.00
0.00 0.00 0.00 0.00 0.00 0.00 0.00 0.00 0.00 0.00 0.00 0.00 0.00 0.00 0.00 0.00 0.00 0.00 0.00 0.00 0.00 0.00 0.00 0.00 0.00 0.00 0.00 0.00 0.00 0.00 0.00 0.00 0.00 0.00 0.00 0.00 0.00 0.00 0.00 0.00 0.00 0.00 0.00 0.00 0.00
MSLP
1016.31 1016.02 1015.74 1015.52 1015.27 1014.96 1014.81 1014.60 1014.40 1014.35 1014.29 1014.14 1014.03 1013.88 1013.72 1013.35 1012.59 1012.52 1011.54 1009.26 1009.12 1009.21 1009.53 1009.57 1009.93 1010.22 1010.69 1011.57 1012.40 1013.90 1014.57 1014.99 1014.11 1012.81 1011.32 1010.02 1009.25 1009.20 1009.63 1010.98 1011.54 1011.83 1012.82 1013.87 1014.74
1016.33 1015.93 1015.62 1015.40 1015.09 1014.84 1014.65 1014.55 1014.38 1014.25 1014.18 1014.05 1013.94 1013.77 1013.57 1013.25 1012.66 1011.17 1008.41 1008.35 1008.53 1009.03 1009.31 1009.37 1009.58 1010.14 1010.95 1012.02 1013.04 1013.70 1013.98 1013.74 1012.72 1011.92 1011.59 1010.18 1010.30 1009.29 1010.26 1011.43 1012.20 1012.75 1013.64 1014.36 1015.01
1016.44 1016.02 1015.61 1015.29 1015.00 1014.71 1014.49 1014.42 1014.29 1014.14 1014.05 1013.92 1013.83 1013.67 1013.44 1013.21 1012.20 1008.77 1007.24 1007.75 1008.31 1008.72 1008.76 1008.98 1009.32 1010.03 1011.20 1011.92 1012.83 1013.55 1013.60 1013.31 1012.67 1012.53 1012.10 1011.32 1010.34 1008.99 1010.21 1011.83 1011.64 1012.51 1013.56 1014.21 1015.02
1016.41 1015.96 1015.57 1015.26 1014.92 1014.61 1014.37 1014.28 1014.21 1014.13 1013.97 1013.85 1013.73 1013.57 1013.31 1013.00 1010.81 1007.54 1006.83 1007.45 1008.12 1008.55 1008.80 1008.87 1009.39 1010.32 1011.45 1012.18 1012.37 1012.87 1012.88 1013.08 1012.97 1012.62 1012.49 1011.92 1011.14 1010.52 1009.75 1011.07 1011.64 1012.11 1012.96 1013.90 1014.86
1016.30 1015.85 1015.41 1015.11 1014.86 1014.51 1014.18 1014.13 1014.08 1014.00 1013.79 1013.65 1013.54 1013.38 1013.12 1012.21 1009.34 1007.29 1007.34 1007.68 1008.25 1008.41 1008.42 1008.82 1009.48 1010.54 1011.34 1011.81 1011.58 1011.69 1012.84 1013.01 1013.16 1013.02 1012.54 1012.22 1011.06 1010.72 1010.52 1010.94 1011.80 1012.24 1012.91 1013.66 1014.36
1016.23 1015.76 1015.33 1014.94 1014.62 1014.31 1014.04 1013.94 1013.89 1013.75 1013.54 1013.42 1013.35 1013.28 1012.82 1010.72 1006.90 1007.04 1007.40 1007.94 1007.93 1007.97 1007.91 1008.78 1009.06 1009.87 1010.87 1010.97 1010.98 1011.69 1012.43 1012.79 1013.14 1012.82 1012.69 1012.11 1011.11 1010.25 1010.80 1010.93 1011.80 1012.23 1013.03 1013.49 1013.86
1016.00 1015.58 1015.21 1014.84 1014.43 1014.11 1013.87 1013.70 1013.63 1013.39 1013.26 1013.20 1013.19 1013.03 1012.09 1008.67 1006.74 1007.10 1007.41 1007.66 1007.62 1007.47 1007.81 1008.10 1008.57 1009.52 1010.56 1011.21 1011.53 1011.94 1012.74 1012.88 1013.18 1013.28 1013.16 1012.33 1011.64 1011.63 1011.55 1011.29 1011.60 1012.16 1012.61 1013.31 1013.62
1015.85 1015.36 1014.97 1014.61 1014.21 1013.87 1013.63 1013.35 1013.16 1012.97 1012.88 1012.95 1013.05 1012.71 1010.53 1006.96 1006.96 1007.30 1007.72 1007.66 1007.40 1007.35 1007.28 1007.94 1008.12 1009.62 1010.61 1011.47 1012.02 1012.35 1012.69 1013.07 1013.37 1013.06 1013.07 1012.48 1012.73 1011.73 1011.52 1011.50 1011.77 1012.10 1012.76 1013.32 1013.53
1015.68 1015.16 1014.73 1014.32 1013.93 1013.58 1013.15 1012.85 1012.56 1012.34 1012.60 1012.83 1012.90 1012.10 1009.19 1006.25 1006.73 1006.17 1006.87 1007.07 1007.16 1007.24 1007.09 1007.42 1008.23 1009.91 1011.00 1011.85 1012.50 1012.72 1012.85 1012.99 1013.07 1012.70 1012.62 1012.97 1012.80 1011.67 1011.61 1011.93 1011.58 1012.24 1012.72 1013.25 1013.60
1015.48 1014.95 1014.43 1014.03 1013.65 1013.29 1012.64 1012.30 1012.20 1012.39 1012.62 1012.52 1011.79 1011.36 1007.94 1006.00 1005.36 1005.74 1006.22 1006.45 1006.95 1007.24 1007.69 1007.56 1008.92 1010.17 1011.13 1011.76 1012.04 1012.40 1012.70 1012.47 1012.43 1012.64 1012.68 1012.83 1012.34 1011.55 1011.53 1012.10 1012.01 1012.12 1012.61 1013.01 1013.23
1015.12 1014.62 1014.09 1013.66 1013.42 1013.20 1012.48 1012.07 1012.46 1012.05 1011.42 1010.02 1008.95 1007.88 1006.28 1005.18 1005.01 1005.32 1005.52 1006.01 1006.50 1007.23 1007.92 1008.08 1009.49 1009.75 1009.68 1010.34 1010.78 1011.21 1011.34 1011.65 1011.73 1011.53 1011.92 1012.10 1011.84 1011.17 1011.11 1011.61 1012.02 1012.26 1012.49 1012.88 1013.11
1014.71 1014.13 1013.68 1013.17 1012.94 1012.97 1013.00 1011.67 1009.31 1008.61 1008.88 1007.73 1007.27 1006.91 1005.55 1005.07 1005.35 1005.06 1005.23 1006.18 1006.66 1007.28 1007.64 1008.55 1008.75 1008.11 1008.52 1009.69 1010.18 1010.50 1010.58 1010.97 1011.48 1011.29 1011.92 1011.88 1011.57 1011.20 1011.05 1011.09 1011.31 1011.72 1011.84 1012.22 1012.44
1014.36 1013.69 1013.19 1012.57 1012.29 1012.54 1011.74 1009.36 1007.65 1007.84 1008.27 1006.03 1005.49 1005.53 1004.76 1004.95 1005.04 1004.79 1005.23 1005.78 1006.51 1007.08 1007.37 1007.82 1006.77 1007.09 1007.58 1008.40 1009.18 1009.44 1009.77 1010.00 1010.48 1011.37 1012.17 1012.40 1012.36 1011.73 1011.21 1010.64 1010.69 1010.86 1011.24 1011.52 1011.63
1013.96 1013.26 1012.77 1012.11 1012.02 1011.28 1009.89 1006.79 1007.61 1007.72 1008.29 1005.75 1004.58 1003.60 1003.74 1004.12 1004.36 1003.96 1004.48 1005.48 1006.23 1006.53 1006.84 1007.01 1005.59 1006.32 1006.42 1007.43 1008.09 1008.67 1008.40 1009.20 1010.08 1011.63 1012.22 1012.31 1012.27 1011.44 1010.80 1010.24 1010.12 1010.28 1010.58 1010.94 1011.42
1013.45 1012.76 1012.42 1012.45 1011.95 1010.64 1007.38 1006.92 1007.51 1007.50 1007.52 1004.19 1003.56 1002.04 1002.65 1003.67 1003.67 1003.93 1004.03 1004.97 1005.60 1006.07 1006.68 1005.93 1005.51 1005.35 1005.47 1005.69 1006.70 1006.39 1006.69 1007.94 1009.59 1011.32 1012.38 1012.90 1012.87 1010.71 1010.60 1010.39 1009.90 1009.76 1010.10 1010.38 1010.79
1012.42 1012.12 1011.85 1011.98 1011.80 1008.46 1007.28 1006.89 1007.19 1008.11 1006.26 1003.66 1002.51 1002.58 1003.32 1003.41 1003.57 1003.77 1004.25 1004.52 1004.66 1005.80 1006.06 1005.57 1004.75 1004.41 1003.74 1003.80 1004.82 1004.60 1005.74 1008.07 1010.31 1011.92 1012.76 1012.28 1012.29 1009.52 1009.52 1008.67 1008.72 1009.15 1009.48 1009.90 1010.57
1011.21 1011.03 1011.32 1010.36 1008.87 1007.34 1007.13 1007.23 1008.28 1007.60 1004.94 1003.45 1002.96 1002.89 1003.30 1003.53 1003.69 1004.04 1004.59 1005.01 1005.43 1006.01 1006.46 1005.76 1004.72 1003.81 1003.54 1003.50 1003.50 1004.08 1005.94 1008.23 1010.89 1011.64 1011.97 1011.30 1011.65 1009.19 1007.46 1007.53 1007.34 1008.37 1008.83 1009.48 1010.16
1010.41 1009.41 1009.49 1008.94 1007.50 1007.60 1007.55 1008.50 1008.62 1006.60 1005.16 1003.78 1003.68 1003.41 1003.64 1003.36 1003.53 1003.94 1004.60 1005.34 1005.46 1005.60 1006.43 1006.34 1005.14 1003.67 1002.76 1002.94 1003.25 1004.21 1005.64 1007.29 1009.21 1010.76 1011.07 1011.16 1010.21 1007.71 1005.95 1006.00 1006.95 1007.74 1008.17 1009.03 1009.65
1009.98 1009.16 1009.22 1007.01 1007.30 1007.83 1008.55 1009.45 1008.05 1006.44 1005.34 1004.61 1003.58 1003.76 1003.81 1003.53 1003.51 1003.87 1004.19 1004.50 1004.42 1004.93 1005.82 1005.59 1004.65 1003.00 1002.61 1002.16 1002.74 1003.59 1004.80 1005.63 1007.62 1009.68 1010.72 1010.82 1008.97 1007.20 1006.25 1006.46 1007.06 1007.71 1008.18 1008.59 1009.01
1011.15 1009.83 1007.93 1005.85 1006.83 1007.73 1009.07 1009.22 1007.63 1005.90 1005.13 1004.68 1004.69 1003.97 1004.07 1003.75 1003.92 1004.31 1003.85 1003.09 1003.25 1003.31 1003.67 1004.38 1004.33 1002.60 1001.87 1001.30 1002.03 1002.72 1003.83 1005.63 1007.77 1009.55 1010.95 1010.65 1009.45 1008.20 1007.12 1006.69 1006.90 1007.33 1007.70 1008.24 1008.71
1011.03 1009.79 1006.38 1005.86 1006.86 1008.59 1009.61 1008.74 1006.91 1005.35 1004.90 1004.50 1004.01 1003.84 1003.45 1003.61 1003.75 1003.89 1003.35 1002.65 1002.23 1002.02 1002.68 1003.39 1004.25 1002.68 1002.28 1002.09 1002.21 1002.91 1003.78 1005.58 1007.48 1008.73 1010.35 1010.70 1009.28 1006.37 1006.09 1005.99 1006.50 1006.96 1007.69 1007.95 1008.53
1012.60 1010.48 1006.74 1006.29 1008.01 1009.19 1009.38 1007.94 1006.56 1005.29 1004.46 1003.96 1003.23 1002.96 1003.01 1003.25 1003.36 1003.48 1003.07 1002.45 1001.43 1001.32 1002.47 1002.46 1003.59 1003.77 1002.82 1001.99 1001.85 1002.42 1003.39 1005.00 1007.45 1008.86 1009.52 1009.27 1007.73 1005.98 1005.63 1005.98 1006.61 1007.05 1007.43 1007.66 1008.56
1014.40 1011.84 1007.33 1007.31 1009.26 1010.24 1009.47 1008.27 1007.02 1005.96 1005.04 1004.43 1003.82 1003.39 1003.19 1003.61 1003.82 1003.20 1002.45 1001.46 1001.10 1001.02 1001.42 1001.83 1003.25 1003.73 1003.43 1002.84 1002.02 1002.52 1003.79 1004.95 1006.36 1007.79 1008.49 1009.47 1007.61 1005.76 1005.72 1005.97 1006.21 1006.95 1007.65 1008.33 1008.81
1014.82 1013.22 1010.77 1010.16 1010.90 1011.39 1010.91 1009.23 1007.71 1006.20 1005.31 1004.91 1004.63 1003.64 1003.66 1003.75 1003.80 1003.87 1003.08 1001.91 1001.53 1001.20 1001.24 1001.31 1002.85 1003.67 1003.74 1003.33 1002.91 1003.04 1003.70 1005.04 1005.90 1007.63 1008.46 1008.01 1007.32 1006.69 1006.09 1006.03 1006.58 1006.76 1007.24 1008.03 1008.50
1015.13 1015.24 1014.56 1013.60 1012.67 1012.57 1011.70 1010.19 1008.84 1007.45 1006.28 1005.67 1005.33 1005.64 1005.57 1004.99 1004.75 1004.54 1003.66 1002.82 1002.20 1002.22 1002.19 1002.69 1003.81 1003.66 1003.45 1003.08 1002.97 1002.92 1003.34 1004.32 1005.39 1005.98 1006.74 1006.73 1006.85 1005.91 1005.44 1005.39 1005.72 1006.16 1006.94 1007.60 1008.29
1016.56 1016.58 1015.77 1015.11 1014.05 1013.24 1011.97 1011.19 1009.99 1008.71 1007.69 1007.14 1006.99 1006.46 1006.43 1006.55 1006.56 1006.19 1005.56 1004.50 1003.82 1003.40 1003.39 1003.74 1004.09 1004.21 1003.98 1003.34 1003.05 1003.11 1002.93 1003.36 1004.12 1004.74 1005.14 1005.52 1005.92 1005.09 1005.52 1005.47 1005.82 1006.02 1006.46 1007.01 1007.97
1017.74 1017.14 1016.87 1015.92 1015.08 1014.23 1013.25 1012.29 1010.96 1010.08 1008.50 1008.05 1007.54 1006.94 1006.36 1006.22 1005.95 1005.75 1005.70 1005.24 1004.87 1004.80 1004.66 1004.92 1005.23 1005.40 1004.95 1004.04 1003.54 1003.72 1002.90 1002.82 1003.11 1003.44 1004.14 1004.45 1004.36 1004.37 1005.17 1005.35 1005.10 1005.57 1005.76 1006.39 1007.40
Thickness
5757 5759 5761 5762 5763 5765 5766 5767 5768 5767 5768 5768 5769 5771 5773 5776 5782 5782 5781 5803 5805 5805 5802 5799 5792 5789 5785 5769 5768 5753 5726 5716 5726 5733 5750 5773 5772 5787 5786 5761 5762 5767 5756 5752 5749
5760 5763 5764 5765 5767 5768 5769 5769 5769 5769 5768 5769 5770 5771 5773 5776 5779 5784 5813 5812 5811 5806 5799 5790 5782 5783 5762 5757 5752 5741 5718 5730 5751 5755 5749 5767 5761 5776 5766 5757 5752 5751 5752 5751 5746
5761 5764 5766 5767 5769 5770 5771 5771 5770 5770 5769 5770 5770 5771 5773 5775 5777 5798 5822 5817 5812 5808 5805 5798 5791 5777 5755 5763 5752 5742 5729 5740 5747 5750 5752 5756 5763 5782 5763 5743 5756 5747 5746 5748 5744
5762 5765 5767 5768 5769 5770 5771 5771 5770 5770 5769 5769 5769 5770 5772 5774 5766 5813 5824 5819 5813 5808 5800 5793 5783 5765 5754 5748 5758 5740 5748 5745 5748 5754 5750 5750 5762 5762 5768 5759 5767 5763 5757 5749 5741
5763 5765 5768 5769 5769 5770 5771 5770 5769 5769 5769 5769 5769 5770 5772 5770 5781 5819 5818 5815 5810 5805 5796 5785 5778 5765 5755 5756 5765 5758 5742 5747 5746 5745 5751 5754 5756 5759 5765 5770 5770 5764 5759 5752 5748
5763 5765 5767 5768 5769 5771 5771 5771 5770 5770 5770 5769 5769 5769 5770 5761 5819 5819 5816 5810 5808 5803 5797 5788 5785 5784 5767 5769 5767 5767 5755 5748 5744 5740 5747 5749 5758 5770 5768 5776 5765 5762 5756 5755 5753
5763 5764 5765 5766 5769 5770 5771 5772 5771 5772 5772 5770 5769 5771 5768 5780 5821 5817 5813 5808 5809 5805 5791 5798 5802 5787 5775 5762 5772 5766 5747 5746 5741 5742 5737 5753 5747 5748 5761 5772 5763 5761 5761 5755 5753
5761 5762 5764 5766 5768 5771 5772 5773 5774 5775 5774 5772 5769 5771 5770 5817 5816 5811 5808 5803 5809 5807 5802 5805 5808 5783 5772 5770 5760 5751 5748 5729 5735 5742 5744 5747 5715 5749 5767 5765 5758 5760 5758 5756 5755
5759 5762 5764 5767 5769 5772 5775 5777 5778 5779 5776 5773 5770 5770 5774 5823 5806 5818 5811 5799 5801 5801 5802 5814 5801 5774 5768 5747 5735 5739 5727 5728 5733 5749 5743 5736 5725 5753 5763 5756 5761 5756 5754 5752 5752
5761 5764 5767 5768 5771 5773 5778 5780 5779 5777 5775 5774 5778 5767 5794 5800 5817 5816 5814 5809 5795 5791 5784 5793 5773 5755 5750 5739 5729 5733 5729 5738 5734 5744 5741 5732 5736 5752 5761 5749 5751 5758 5757 5756 5756
5763 5766 5769 5771 5772 5773 5778 5781 5775 5773 5777 5779 5788 5791 5805 5820 5825 5812 5816 5804 5797 5782 5756 5775 5752 5741 5756 5757 5763 5753 5745 5741 5748 5759 5749 5741 5741 5756 5764 5756 5750 5752 5758 5756 5758
5765 5769 5772 5775 5775 5774 5773 5781 5794 5800 5774 5799 5801 5800 5816 5818 5796 5805 5815 5783 5777 5755 5767 5756 5740 5772 5779 5764 5761 5759 5751 5747 5752 5762 5745 5742 5744 5756 5761 5763 5762 5763 5763 5763 5763
5767 5771 5775 5779 5780 5777 5780 5795 5814 5810 5771 5798 5807 5802 5808 5811 5793 5793 5802 5787 5772 5759 5762 5747 5772 5787 5775 5766 5757 5758 5752 5757 5754 5754 5746 5739 5731 5743 5759 5768 5772 5772 5770 5770 5770
5769 5773 5777 5782 5784 5786 5790 5818 5811 5809 5746 5778 5799 5810 5816 5814 5791 5817 5813 5793 5775 5762 5765 5759 5792 5780 5776 5761 5763 5747 5774 5772 5757 5736 5719 5745 5719 5742 5755 5766 5770 5775 5772 5772 5770
5771 5776 5778 5777 5778 5786 5811 5815 5810 5798 5720 5804 5802 5841 5824 5801 5803 5802 5819 5796 5770 5770 5772 5760 5773 5772 5769 5774 5777 5770 5790 5775 5761 5733 5728 5727 5715 5747 5752 5750 5762 5771 5774 5773 5773
5777 5779 5780 5779 5776 5802 5811 5813 5803 5745 5724 5792 5813 5803 5795 5800 5801 5807 5800 5806 5801 5777 5777 5773 5797 5794 5793 5805 5791 5805 5793 5769 5742 5725 5707 5726 5724 5754 5751 5765 5770 5775 5776 5777 5773
5784 5785 5782 5787 5794 5810 5811 5798 5741 5722 5790 5788 5787 5797 5788 5783 5788 5788 5779 5771 5757 5747 5740 5762 5778 5794 5804 5792 5802 5801 5761 5724 5708 5703 5705 5740 5727 5750 5786 5786 5787 5775 5777 5777 5773
5788 5795 5794 5797 5807 5805 5801 5762 5730 5762 5769 5798 5793 5788 5773 5787 5783 5784 5770 5757 5768 5768 5742 5734 5733 5783 5805 5793 5785 5784 5761 5730 5710 5700 5715 5732 5724 5754 5803 5805 5796 5788 5785 5781 5775
5788 5794 5791 5808 5806 5800 5773 5727 5737 5760 5781 5773 5781 5768 5768 5781 5785 5777 5767 5768 5777 5774 5747 5734 5744 5796 5800 5808 5800 5783 5764 5782 5757 5737 5716 5718 5751 5782 5794 5791 5788 5782 5782 5781 5779
5773 5780 5790 5813 5805 5787 5750 5731 5752 5780 5780 5776 5752 5770 5756 5768 5768 5764 5759 5787 5786 5794 5792 5773 5749 5788 5805 5812 5808 5793 5797 5756 5739 5721 5701 5712 5724 5734 5768 5777 5780 5781 5779 5779 5779
5773 5771 5798 5808 5796 5761 5731 5736 5766 5784 5782 5771 5765 5757 5768 5764 5767 5763 5768 5785 5800 5801 5797 5787 5765 5781 5797 5786 5777 5779 5773 5766 5749 5734 5703 5691 5716 5773 5778 5784 5779 5779 5778 5780 5779
5749 5754 5796 5799 5750 5740 5734 5757 5773 5774 5783 5775 5780 5783 5775 5772 5762 5762 5765 5780 5808 5806 5775 5788 5758 5747 5767 5800 5807 5793 5781 5762 5727 5738 5724 5719 5722 5787 5793 5783 5780 5777 5778 5781 5775
5727 5740 5786 5781 5728 5723 5740 5750 5763 5761 5763 5765 5768 5779 5779 5766 5748 5764 5772 5800 5805 5800 5792 5790 5752 5731 5749 5769 5794 5784 5774 5768 5750 5740 5731 5709 5726 5781 5783 5783 5787 5776 5774 5772 5771
5725 5723 5742 5744 5734 5726 5720 5731 5739 5763 5762 5763 5758 5767 5763 5758 5756 5751 5761 5788 5796 5798 5798 5791 5753 5743 5726 5748 5770 5768 5776 5756 5748 5717 5718 5725 5740 5759 5771 5776 5775 5777 5776 5773 5771
5719 5709 5710 5697 5710 5709 5716 5724 5726 5729 5749 5747 5742 5737 5730 5730 5729 5732 5753 5763 5782 5777 5779 5768 5745 5756 5759 5769 5770 5770 5773 5763 5750 5742 5731 5749 5736 5761 5772 5779 5782 5783 5779 5776 5769
5699 5692 5694 5692 5696 5702 5704 5706 5710 5719 5726 5720 5715 5724 5719 5708 5712 5710 5724 5733 5747 5758 5759 5751 5741 5753 5753 5764 5762 5754 5765 5770 5767 5756 5752 5748 5744 5777 5773 5777 5777 5782 5780 5778 5772
5685 5689 5683 5681 5685 5688 5687 5691 5699 5702 5716 5719 5715 5710 5712 5714 5724 5725 5727 5733 5737 5738 5736 5735 5724 5716 5721 5746 5744 5724 5743 5760 5766 5768 5758 5742 5761 5772 5765 5770 5780 5780 5785 5782 5776